Location: Berlise
(49.6641°N, 4.1077°E)
Time: 19:46:57
(UTC+00:00)

Cosmos 841 Rocket - Pass Details

Date: 27 January 2021
Orbit: 746 x 773 km, 74.0° (Epoch: 27 February)

Event Time Altitude Azimuth Distance (km) Brightness Sun altitude
Exits shadow 04:16:52 59° 77° (ENE) 864 3.9 -29.9°
Drops below altitude 10° 04:21:27 10° 29° (NNE) 2,285 6.3 -29.2°
Sets 04:23:51 0° 26° (NNE) 3,218 7.1 -28.8°
